Location: Bessat
(45.8735°N, 1.9924°E)
Time: 04:20:17
(UTC+00:00)

Cosmos 1544 - Pass Details

Date: 11 May 2021
Orbit: 471 x 487 km, 82.5° (Epoch: 14 June)

Event Time Altitude Azimuth Distance (km) Brightness Sun altitude
Rises 21:31:35 0° 359° (N) 2,536 7.7 -18.9°
Reaches altitude 10° 21:33:50 10° 9° (N) 1,655 6.4 -19.1°
Maximum altitude 21:37:08 33° 75° (ENE) 824 4.0 -19.4°
Enters shadow 21:37:09 33° 76° (ENE) 824 4.0 -19.4°
